,,Stat5,,Stat1,,Stat2,,Stat3,,Stat4,,Wind1,,Wind1,
time,status,PA1M_AVG,status,PR1M_SUM,status,RH1M_AVG,status,SR1M_AVG,status,TA1M_AVG,status,W1dAve1m,status,W1sAve1m,
2001-01-22, 00:00:00,VALID,916.667,VALID,0,VALID,97.0883,VALID,-0.0339617,VALID,20.1353,VALID,74,VALID,0,
2001-01-22, 00:01:00,VALID,916.664,VALID,0,VALID,97.2968,VALID,-0.0169808,VALID,20.1448,VALID,76,VALID,0,
2001-01-22, 00:02:00,VALID,916.66,VALID,0,VALID,97.4342,VALID,-0.0339617,VALID,20.1478,VALID,77,VALID,0,
2001-01-22, 00:03:00,VALID,916.657,VALID,0,VALID,97.5524,VALID,-0.0169808,VALID,20.158,VALID,63,VALID,0,
2001-01-22, 00:04:00,VALID,916.634,VALID,0,VALID,97.6783,VALID,-0.0509425,VALID,20.1835,VALID,58,VALID,0.549831,
2001-01-22, 00:05:00,VALID,916.61,VALID,0,VALID,97.7571,VALID,-0.0169808,VALID,20.2196,VALID,66,VALID,0.856297,
2001-01-22, 00:06:00,VALID,916.582,VALID,0,VALID,97.7025,VALID,-0.0509425,VALID,20.2029,VALID,82,VALID,0.727564,
2001-01-22, 00:07:00,VALID,916.556,VALID,0,VALID,97.5575,VALID,0,VALID,20.1965,VALID,85,VALID,0.81808,
2001-01-22, 00:08:00,VALID,916.548,VALID,0,VALID,97.4392,VALID,-0.0169808,VALID,20.1937,VALID,95,VALID,0.719643,
2001-01-22, 00:09:00,VALID,916.557,VALID,0,VALID,97.2612,VALID,-0.0339617,VALID,20.1905,VALID,81,VALID,0.557977,
2001-01-22, 00:10:00,VALID,916.561,VALID,0,VALID,97.2612,VALID,-0.0679233,VALID,20.1838,VALID,65,VALID,0.767228,
2001-01-22, 00:11:00,VALID,916.575,VALID,0,VALID,97.3248,VALID,-0.101885,VALID,20.1841,VALID,71,VALID,0.709293,
2001-01-22, 00:12:00,VALID,916.596,VALID,0,VALID,97.3731,VALID,-0.0169808,VALID,20.2032,VALID,41,VALID,0.416992,
2001-01-22, 00:13:00,VALID,916.601,VALID,0,VALID,97.4278,VALID,-0.0509425,VALID,20.2198,VALID,21,VALID,0.0409128,
2001-01-22, 00:14:00,VALID,916.604,VALID,0,VALID,97.4977,VALID,-0.0679233,VALID,20.2363,VALID,21,VALID,0,
2001-01-22, 00:15:00,VALID,916.602,VALID,0,VALID,97.5194,VALID,-0.0509425,VALID,20.2352,VALID,24,VALID,0,
2001-01-22, 00:16:00,VALID,916.605,VALID,0,VALID,97.3935,VALID,-0.0509425,VALID,20.2293,VALID,34,VALID,0,
2001-01-22, 00:17:00,VALID,916.602,VALID,0,VALID,97.41,VALID,-0.0339617,VALID,20.2352,VALID,53,VALID,0,
2001-01-22, 00:18:00,VALID,916.61,VALID,0,VALID,97.3108,VALID,-0.0169808,VALID,20.2231,VALID,68,VALID,0,
2001-01-22, 00:19:00,VALID,916.62,VALID,0,VALID,97.307,VALID,-0.0679233,VALID,20.2171,VALID,76,VALID,0,
2001-01-22, 00:20:00,VALID,916.61,VALID,0,VALID,97.3986,VALID,-0.0339617,VALID,20.2191,VALID,76,VALID,0,
2001-01-22, 00:21:00,VALID,916.625,VALID,0,VALID,97.4443,VALID,-0.0679233,VALID,20.2432,VALID,76,VALID,0,
2001-01-22, 00:22:00,VALID,916.615,VALID,0,VALID,97.5066,VALID,-0.0339617,VALID,20.2452,VALID,66,VALID,0,
2001-01-22, 00:23:00,VALID,916.604,VALID,0,VALID,97.5626,VALID,-0.0509425,VALID,20.2519,VALID,62,VALID,0,
2001-01-22, 00:24:00,VALID,916.611,VALID,0,VALID,97.3159,VALID,-0.0169808,VALID,20.2134,VALID,52,VALID,0,
2001-01-22, 00:25:00,VALID,916.6,VALID,0,VALID,96.9967,VALID,0,VALID,20.1614,VALID,80,VALID,0.215049,
2001-01-22, 00:26:00,VALID,916.587,VALID,0,VALID,96.6903,VALID,-0.0169808,VALID,20.1006,VALID,86,VALID,0,
2001-01-22, 00:27:00,VALID,916.58,VALID,0,VALID,97.1328,VALID,-0.0339617,VALID,20.1001,VALID,86,VALID,0,
2001-01-22, 00:28:00,VALID,916.587,VALID,0,VALID,97.0565,VALID,-0.0169808,VALID,20.1008,VALID,86,VALID,0,
2001-01-22, 00:29:00,VALID,916.579,VALID,0,VALID,96.9001,VALID,-0.0339617,VALID,20.0712,VALID,86,VALID,0,
2001-01-22, 00:30:00,VALID,916.562,VALID,0,VALID,96.3927,VALID,-0.0849042,VALID,19.991,VALID,86,VALID,0,
2001-01-22, 00:31:00,VALID,916.57,VALID,0,VALID,96.2973,VALID,-0.0339617,VALID,19.9191,VALID,86,VALID,0,
2001-01-22, 00:32:00,VALID,916.562,VALID,0,VALID,96.7691,VALID,0,VALID,19.9353,VALID,86,VALID,0,
2001-01-22, 00:33:00,VALID,916.551,VALID,0,VALID,97.2688,VALID,-0.0339617,VALID,19.9972,VALID,86,VALID,0,
2001-01-22, 00:34:00,VALID,916.559,VALID,0,VALID,97.4876,VALID,-0.0679233,VALID,20.0362,VALID,86,VALID,0,
2001-01-22, 00:35:00,VALID,916.57,VALID,0,VALID,97.4532,VALID,-0.0339617,VALID,20.0459,VALID,86,VALID,0,
2001-01-22, 00:36:00,VALID,916.589,VALID,0,VALID,96.8111,VALID,-0.0169808,VALID,19.978,VALID,86,VALID,0,
2001-01-22, 00:37:00,VALID,916.614,VALID,0,VALID,96.2439,VALID,0,VALID,19.91,VALID,86,VALID,0,
2001-01-22, 00:38:00,VALID,916.62,VALID,0,VALID,96.8861,VALID,0,VALID,19.9159,VALID,87,VALID,0.192107,
2001-01-22, 00:39:00,VALID,916.621,VALID,0,VALID,97.3121,VALID,-0.0339617,VALID,19.9646,VALID,104,VALID,0.610609,
2001-01-22, 00:40:00,VALID,916.623,VALID,0,VALID,97.3642,VALID,-0.0509425,VALID,19.9684,VALID,109,VALID,0.466016,
2001-01-22, 00:41:00,VALID,916.616,VALID,0,VALID,97.4367,VALID,0,VALID,19.9684,VALID,108,VALID,0.541941,
2001-01-22, 00:42:00,VALID,916.595,VALID,0,VALID,97.4545,VALID,0,VALID,19.9679,VALID,105,VALID,0.410979,
2001-01-22, 00:43:00,VALID,916.56,VALID,0,VALID,97.4685,VALID,-0.0169808,VALID,19.9843,VALID,106,VALID,0.327303,
2001-01-22, 00:44:00,VALID,916.539,VALID,0,VALID,97.4481,VALID,-0.0169808,VALID,20.0104,VALID,107,VALID,0.0943359,
2001-01-22, 00:45:00,VALID,916.519,VALID,0,VALID,97.3591,VALID,0,VALID,20.0332,VALID,107,VALID,0,
2001-01-22, 00:46:00,VALID,916.509,VALID,0,VALID,97.2765,VALID,0,VALID,20.0392,VALID,107,VALID,0,
2001-01-22, 00:47:00,VALID,916.492,VALID,0,VALID,97.1226,VALID,-0.0339617,VALID,20.0484,VALID,107,VALID,0,
2001-01-22, 00:48:00,VALID,916.496,VALID,0,VALID,96.9293,VALID,-0.0169808,VALID,20.062,VALID,107,VALID,0,
2001-01-22, 00:49:00,VALID,916.479,VALID,0,VALID,96.8874,VALID,0,VALID,20.0876,VALID,107,VALID,0,
2001-01-22, 00:50:00,VALID,916.451,VALID,0,VALID,96.7335,VALID,-0.0169808,VALID,20.0844,VALID,107,VALID,0,
2001-01-22, 00:51:00,VALID,916.429,VALID,0,VALID,96.5364,VALID,-0.0339617,VALID,20.071,VALID,62,VALID,0.127056,
2001-01-22, 00:52:00,VALID,916.401,VALID,0,VALID,96.5021,VALID,0.0169808,VALID,20.0871,VALID,306,VALID,0.0193359,
2001-01-22, 00:53:00,VALID,916.383,VALID,0,VALID,96.4983,VALID,0,VALID,20.1011,VALID,305,VALID,0,
2001-01-22, 00:54:00,VALID,916.377,VALID,0,VALID,96.4741,VALID,0.0169808,VALID,20.1132,VALID,305,VALID,0,
2001-01-22, 00:55:00,VALID,916.372,VALID,0,VALID,96.4474,VALID,-0.0509425,VALID,20.1294,VALID,305,VALID,0,
2001-01-22, 00:56:00,VALID,916.379,VALID,0,VALID,96.4029,VALID,-0.0339617,VALID,20.149,VALID,305,VALID,0,
2001-01-22, 00:57:00,VALID,916.384,VALID,0,VALID,96.0952,VALID,0,VALID,20.1488,VALID,305,VALID,0,
2001-01-22, 00:58:00,VALID,916.388,VALID,0,VALID,95.1097,VALID,0.0339617,VALID,20.071,VALID,305,VALID,0,
2001-01-22, 00:59:00,VALID,916.383,VALID,0,VALID,94.9011,VALID,0,VALID,20.0327,VALID,305,VALID,0,
2001-01-22, 01:00:00,VALID,916.376,VALID,0,VALID,95.0906,VALID,0,VALID,20.0036,VALID,305,VALID,0,
2001-01-22, 01:01:00,VALID,916.373,VALID,0,VALID,95.4009,VALID,0,VALID,19.9939,VALID,305,VALID,0,
2001-01-22, 01:02:00,VALID,916.352,VALID,0,VALID,95.5522,VALID,-0.0169808,VALID,19.9778,VALID,305,VALID,0,
2001-01-22, 01:03:00,VALID,916.324,VALID,0,VALID,95.6107,VALID,-0.0169808,VALID,19.9554,VALID,305,VALID,0,
2001-01-22, 01:04:00,VALID,916.315,VALID,0,VALID,95.6361,VALID,0,VALID,19.9321,VALID,305,VALID,0,
2001-01-22, 01:05:00,VALID,916.308,VALID,0,VALID,95.823,VALID,0,VALID,19.9323,VALID,305,VALID,0,
2001-01-22, 01:06:00,VALID,916.295,VALID,0,VALID,96.1498,VALID,-0.0339617,VALID,19.9455,VALID,305,VALID,0,
2001-01-22, 01:07:00,VALID,916.29,VALID,0,VALID,96.338,VALID,0,VALID,19.9425,VALID,305,VALID,0,
2001-01-22, 01:08:00,VALID,916.289,VALID,0,VALID,96.5033,VALID,-0.0169808,VALID,19.9321,VALID,305,VALID,0,
2001-01-22, 01:09:00,VALID,916.301,VALID,0,VALID,96.4855,VALID,0,VALID,19.939,VALID,305,VALID,0,
2001-01-22, 01:10:00,VALID,916.291,VALID,0,VALID,96.2414,VALID,0,VALID,19.9162,VALID,305,VALID,0,
2001-01-22, 01:11:00,VALID,916.267,VALID,0,VALID,95.9019,VALID,0,VALID,19.8975,VALID,305,VALID,0,
2001-01-22, 01:12:00,VALID,916.234,VALID,0,VALID,95.7086,VALID,-0.0169808,VALID,19.8809,VALID,305,VALID,0,
2001-01-22, 01:13:00,VALID,916.203,VALID,0,VALID,95.879,VALID,0,VALID,19.8776,VALID,305,VALID,0,
2001-01-22, 01:14:00,VALID,916.166,VALID,0,VALID,96.2999,VALID,-0.0169808,VALID,19.9035,VALID,305,VALID,0,
2001-01-22, 01:15:00,VALID,916.135,VALID,0,VALID,96.7297,VALID,0,VALID,19.952,VALID,305,VALID,0,
2001-01-22, 01:16:00,VALID,916.111,VALID,0,VALID,96.8899,VALID,0,VALID,19.9875,VALID,305,VALID,0,
2001-01-22, 01:17:00,VALID,916.088,VALID,0,VALID,96.0774,VALID,0,VALID,19.9196,VALID,305,VALID,0,
2001-01-22, 01:18:00,VALID,916.073,VALID,0,VALID,95.598,VALID,0,VALID,19.8486,VALID,305,VALID,0,
2001-01-22, 01:19:00,VALID,916.072,VALID,0,VALID,95.425,VALID,0,VALID,19.8165,VALID,305,VALID,0,
2001-01-22, 01:20:00,VALID,916.078,VALID,0,VALID,95.5636,VALID,0,VALID,19.778,VALID,305,VALID,0,
2001-01-22, 01:21:00,VALID,916.078,VALID,0,VALID,95.6145,VALID,0.0169808,VALID,19.7325,VALID,305,VALID,0,
2001-01-22, 01:22:00,VALID,916.07,VALID,0,VALID,95.7378,VALID,0,VALID,19.7064,VALID,305,VALID,0,
2001-01-22, 01:23:00,VALID,916.068,VALID,0,VALID,95.8434,VALID,0,VALID,19.7035,VALID,305,VALID,0,
2001-01-22, 01:24:00,VALID,916.049,VALID,0,VALID,95.9438,VALID,-0.0509425,VALID,19.7002,VALID,305,VALID,0,
2001-01-22, 01:25:00,VALID,916.046,VALID,0,VALID,96.2821,VALID,0,VALID,19.7169,VALID,305,VALID,0,
2001-01-22, 01:26:00,VALID,916.046,VALID,0,VALID,96.6559,VALID,-0.0339617,VALID,19.7589,VALID,305,VALID,0,
2001-01-22, 01:27:00,VALID,916.038,VALID,0,VALID,96.839,VALID,-0.0339617,VALID,19.7812,VALID,305,VALID,0,
2001-01-22, 01:28:00,VALID,916.032,VALID,0,VALID,96.9433,VALID,-0.0339617,VALID,19.784,VALID,305,VALID,0,
2001-01-22, 01:29:00,VALID,916.053,VALID,0,VALID,96.9166,VALID,-0.0169808,VALID,19.8068,VALID,305,VALID,0,
2001-01-22, 01:30:00,VALID,916.058,VALID,0,VALID,96.9319,VALID,-0.0169808,VALID,19.8299,VALID,292,VALID,0,
2001-01-22, 01:31:00,VALID,916.073,VALID,0,VALID,96.839,VALID,-0.0169808,VALID,19.8294,VALID,225,VALID,0,
2001-01-22, 01:32:00,VALID,916.068,VALID,0,VALID,96.6928,VALID,0.0169808,VALID,19.8165,VALID,198,VALID,0,
2001-01-22, 01:33:00,VALID,916.073,VALID,0,VALID,96.7068,VALID,-0.0339617,VALID,19.7874,VALID,185,VALID,0,
2001-01-22, 01:34:00,VALID,916.058,VALID,0,VALID,96.4944,VALID,-0.0169808,VALID,19.7489,VALID,201,VALID,0,
2001-01-22, 01:35:00,VALID,916.036,VALID,0,VALID,96.5377,VALID,0,VALID,19.7067,VALID,226,VALID,0.312706,
2001-01-22, 01:36:00,VALID,916.012,VALID,0,VALID,96.6788,VALID,0,VALID,19.7099,VALID,221,VALID,0.316406,
2001-01-22, 01:37:00,VALID,916.01,VALID,0,VALID,96.7526,VALID,-0.0169808,VALID,19.6808,VALID,221,VALID,0.275082,
2001-01-22, 01:38:00,VALID,916,VALID,0,VALID,96.8479,VALID,-0.0339617,VALID,19.6779,VALID,221,VALID,0.22574,
2001-01-22, 01:39:00,VALID,915.986,VALID,0,VALID,96.8772,VALID,-0.0509425,VALID,19.6779,VALID,221,VALID,0.283717,
2001-01-22, 01:40:00,VALID,915.986,VALID,0,VALID,96.8899,VALID,0,VALID,19.6585,VALID,221,VALID,0.25,
2001-01-22, 01:41:00,VALID,915.99,VALID,0,VALID,96.9929,VALID,-0.0339617,VALID,19.649,VALID,221,VALID,0.0935444,
2001-01-22, 01:42:00,VALID,915.996,VALID,0,VALID,97.1086,VALID,-0.0169808,VALID,19.6262,VALID,221,VALID,0,
2001-01-22, 01:43:00,VALID,915.98,VALID,0,VALID,96.8886,VALID,0,VALID,19.5842,VALID,211,VALID,0,
2001-01-22, 01:44:00,VALID,915.976,VALID,0,VALID,96.4487,VALID,0,VALID,19.5166,VALID,205,VALID,0,
2001-01-22, 01:45:00,VALID,915.97,VALID,0,VALID,96.0074,VALID,0,VALID,19.4326,VALID,204,VALID,0,
2001-01-22, 01:46:00,VALID,915.967,VALID,0,VALID,96.0824,VALID,-0.0169808,VALID,19.4063,VALID,204,VALID,0,
2001-01-22, 01:47:00,VALID,915.954,VALID,0,VALID,95.9858,VALID,-0.0169808,VALID,19.3774,VALID,145,VALID,0.159539,
2001-01-22, 01:48:00,VALID,915.931,VALID,0,VALID,96.0239,VALID,-0.0339617,VALID,19.3352,VALID,114,VALID,0.985156,
2001-01-22, 01:49:00,VALID,915.892,VALID,0,VALID,96.9014,VALID,-0.0509425,VALID,19.3456,VALID,114,VALID,0.93565,
2001-01-22, 01:50:00,VALID,915.854,VALID,0,VALID,97.4799,VALID,0,VALID,19.3841,VALID,129,VALID,0.913662,
2001-01-22, 01:51:00,VALID,915.823,VALID,0,VALID,97.6707,VALID,-0.0509425,VALID,19.4189,VALID,130,VALID,0.813322,
2001-01-22, 01:52:00,VALID,915.792,VALID,0,VALID,97.602,VALID,0,VALID,19.4256,VALID,130,VALID,0.793164,
2001-01-22, 01:53:00,VALID,915.767,VALID,0,VALID,97.7152,VALID,-0.0169808,VALID,19.4589,VALID,130,VALID,0.660567,
2001-01-22, 01:54:00,VALID,915.738,VALID,0,VALID,97.7953,VALID,-0.0169808,VALID,19.4905,VALID,130,VALID,0.586143,
2001-01-22, 01:55:00,VALID,915.711,VALID,0,VALID,97.7813,VALID,-0.0169808,VALID,19.4972,VALID,133,VALID,0.705798,
2001-01-22, 01:56:00,VALID,915.692,VALID,0,VALID,97.9136,VALID,0,VALID,19.5362,VALID,140,VALID,0.692578,
2001-01-22, 01:57:00,VALID,915.659,VALID,0,VALID,97.911,VALID,-0.0169808,VALID,19.5556,VALID,140,VALID,0.401933,
2001-01-22, 01:58:00,VALID,915.629,VALID,0,VALID,97.7749,VALID,0,VALID,19.5422,VALID,140,VALID,0.663261,
2001-01-22, 01:59:00,VALID,915.608,VALID,0,VALID,97.6961,VALID,0,VALID,19.5491,VALID,138,VALID,0.815378,
2001-01-22, 02:00:00,VALID,915.576,VALID,0,VALID,97.5829,VALID,-0.0169808,VALID,19.5521,VALID,138,VALID,0.844141,
2001-01-22, 02:01:00,VALID,915.561,VALID,0,VALID,97.5867,VALID,0,VALID,19.565,VALID,139,VALID,0.689145,
2001-01-22, 02:02:00,VALID,915.549,VALID,0,VALID,97.5842,VALID,-0.0509425,VALID,19.5978,VALID,154,VALID,0.665707,
2001-01-22, 02:03:00,VALID,915.531,VALID,0,VALID,97.7012,VALID,-0.0169808,VALID,19.6232,VALID,164,VALID,0.679688,
2001-01-22, 02:04:00,VALID,915.519,VALID,0,VALID,97.677,VALID,-0.0339617,VALID,19.6557,VALID,174,VALID,0.606055,
2001-01-22, 02:05:00,VALID,915.491,VALID,0,VALID,97.4914,VALID,-0.0339617,VALID,19.6659,VALID,184,VALID,0.290625,
2001-01-22, 02:06:00,VALID,915.491,VALID,0,VALID,97.3922,VALID,-0.0509425,VALID,19.6493,VALID,187,VALID,0.445713,
2001-01-22, 02:07:00,VALID,915.471,VALID,0,VALID,97.2116,VALID,-0.0679233,VALID,19.6396,VALID,187,VALID,0.756373,
2001-01-22, 02:08:00,VALID,915.445,VALID,0,VALID,97.3591,VALID,-0.0339617,VALID,19.6267,VALID,187,VALID,0.741016,
2001-01-22, 02:09:00,VALID,915.43,VALID,0,VALID,97.3426,VALID,-0.0339617,VALID,19.6296,VALID,186,VALID,0.396998,
2001-01-22, 02:10:00,VALID,915.413,VALID,0,VALID,97.0921,VALID,-0.0169808,VALID,19.5939,VALID,186,VALID,0.015625,
2001-01-22, 02:11:00,VALID,915.396,VALID,0,VALID,96.5911,VALID,-0.0509425,VALID,19.5429,VALID,186,VALID,0,
2001-01-22, 02:12:00,VALID,915.359,VALID,0,VALID,96.3889,VALID,-0.0679233,VALID,19.5104,VALID,186,VALID,0,
2001-01-22, 02:13:00,VALID,915.342,VALID,0,VALID,96.3406,VALID,-0.0169808,VALID,19.4806,VALID,185,VALID,0,
2001-01-22, 02:14:00,VALID,915.315,VALID,0,VALID,96.3457,VALID,0,VALID,19.4878,VALID,168,VALID,0,
2001-01-22, 02:15:00,VALID,915.298,VALID,0,VALID,96.3584,VALID,-0.0339617,VALID,19.4644,VALID,168,VALID,0,
2001-01-22, 02:16:00,VALID,915.271,VALID,0,VALID,96.3558,VALID,-0.0339617,VALID,19.4487,VALID,168,VALID,0,
2001-01-22, 02:17:00,VALID,915.262,VALID,0,VALID,96.3698,VALID,0,VALID,19.4654,VALID,168,VALID,0,
2001-01-22, 02:18:00,VALID,915.247,VALID,0,VALID,96.5911,VALID,-0.0169808,VALID,19.4751,VALID,168,VALID,0,
2001-01-22, 02:19:00,VALID,915.228,VALID,0,VALID,96.7666,VALID,-0.0679233,VALID,19.497,VALID,168,VALID,0,
2001-01-22, 02:20:00,VALID,915.22,VALID,0,VALID,96.9039,VALID,-0.0339617,VALID,19.5166,VALID,168,VALID,0,
2001-01-22, 02:21:00,VALID,915.214,VALID,0,VALID,96.937,VALID,-0.0509425,VALID,19.5399,VALID,168,VALID,0,
2001-01-22, 02:22:00,VALID,915.2,VALID,0,VALID,96.9153,VALID,-0.0339617,VALID,19.5461,VALID,169,VALID,0,
2001-01-22, 02:23:00,VALID,915.188,VALID,0,VALID,97.0616,VALID,-0.0849042,VALID,19.5949,VALID,174,VALID,0.0273438,
2001-01-22, 02:24:00,VALID,915.183,VALID,0,VALID,97.1506,VALID,-0.0679233,VALID,19.614,VALID,174,VALID,0,
2001-01-22, 02:25:00,VALID,915.152,VALID,0,VALID,97.2205,VALID,-0.0169808,VALID,19.6301,VALID,174,VALID,0,
2001-01-22, 02:26:00,VALID,915.122,VALID,0,VALID,97.2879,VALID,-0.0339617,VALID,19.6654,VALID,174,VALID,0,
2001-01-22, 02:27:00,VALID,915.083,VALID,0,VALID,97.0768,VALID,-0.0339617,VALID,19.6622,VALID,174,VALID,0,
2001-01-22, 02:28:00,VALID,915.055,VALID,0,VALID,96.5555,VALID,-0.0169808,VALID,19.6361,VALID,173,VALID,0,
2001-01-22, 02:29:00,VALID,915.034,VALID,0,VALID,96.0189,VALID,-0.0169808,VALID,19.6078,VALID,173,VALID,0,
2001-01-22, 02:30:00,VALID,915.017,VALID,0,VALID,95.7976,VALID,-0.0679233,VALID,19.5787,VALID,173,VALID,0,
2001-01-22, 02:31:00,VALID,915.029,VALID,0,VALID,96.3584,VALID,-0.0339617,VALID,19.5809,VALID,247,VALID,0,
2001-01-22, 02:32:00,VALID,915.018,VALID,0,VALID,96.8225,VALID,-0.0509425,VALID,19.6202,VALID,304,VALID,0,
2001-01-22, 02:33:00,VALID,915.004,VALID,0,VALID,97.1137,VALID,-0.0169808,VALID,19.6788,VALID,304,VALID,0,
2001-01-22, 02:34:00,VALID,915.001,VALID,0,VALID,97.2053,VALID,-0.0169808,VALID,19.7012,VALID,304,VALID,0,
2001-01-22, 02:35:00,VALID,915.003,VALID,0,VALID,97.2434,VALID,-0.0339617,VALID,19.6977,VALID,304,VALID,0,
2001-01-22, 02:36:00,VALID,915.008,VALID,0,VALID,97.2854,VALID,-0.0509425,VALID,19.6878,VALID,304,VALID,0,
2001-01-22, 02:37:00,VALID,915.017,VALID,0,VALID,97.3273,VALID,-0.0169808,VALID,19.6885,VALID,304,VALID,0,
2001-01-22, 02:38:00,VALID,915.004,VALID,0,VALID,96.942,VALID,-0.0169808,VALID,19.6523,VALID,304,VALID,0,
2001-01-22, 02:39:00,VALID,914.994,VALID,0,VALID,96.6318,VALID,-0.0509425,VALID,19.6267,VALID,304,VALID,0,
2001-01-22, 02:40:00,VALID,914.992,VALID,0,VALID,96.6801,VALID,0,VALID,19.6132,VALID,300,VALID,0,
2001-01-22, 02:41:00,VALID,914.983,VALID,0,VALID,96.9242,VALID,-0.0509425,VALID,19.6299,VALID,296,VALID,0,
2001-01-22, 02:42:00,VALID,914.985,VALID,0,VALID,97.1442,VALID,-0.0509425,VALID,19.662,VALID,274,VALID,0,
2001-01-22, 02:43:00,VALID,914.972,VALID,0,VALID,97.2561,VALID,-0.0339617,VALID,19.6622,VALID,263,VALID,0,
2001-01-22, 02:44:00,VALID,914.977,VALID,0,VALID,97.2828,VALID,-0.0509425,VALID,19.659,VALID,263,VALID,0,
2001-01-22, 02:45:00,VALID,914.987,VALID,0,VALID,97.3782,VALID,-0.0509425,VALID,19.6652,VALID,263,VALID,0,
2001-01-22, 02:46:00,VALID,915.001,VALID,0,VALID,97.3693,VALID,-0.0509425,VALID,19.6587,VALID,263,VALID,0,
2001-01-22, 02:47:00,VALID,914.998,VALID,0,VALID,97.1862,VALID,-0.0339617,VALID,19.6433,VALID,248,VALID,0,
2001-01-22, 02:48:00,VALID,914.999,VALID,0,VALID,97.1213,VALID,-0.0339617,VALID,19.6359,VALID,133,VALID,0,
2001-01-22, 02:49:00,VALID,914.999,VALID,0,VALID,97.148,VALID,0,VALID,19.649,VALID,127,VALID,0,
2001-01-22, 02:50:00,VALID,914.992,VALID,0,VALID,97.1086,VALID,0,VALID,19.6587,VALID,127,VALID,0,
2001-01-22, 02:51:00,VALID,915.002,VALID,0,VALID,97.1112,VALID,-0.0169808,VALID,19.6716,VALID,116,VALID,0.408306,
2001-01-22, 02:52:00,VALID,914.986,VALID,0,VALID,97.0323,VALID,-0.0169808,VALID,19.6687,VALID,111,VALID,0.520312,
2001-01-22, 02:53:00,VALID,914.984,VALID,0,VALID,97.1328,VALID,-0.0169808,VALID,19.6719,VALID,111,VALID,0.403372,
2001-01-22, 02:54:00,VALID,914.953,VALID,0,VALID,97.2154,VALID,-0.0849042,VALID,19.6818,VALID,111,VALID,0.265024,
2001-01-22, 02:55:00,VALID,914.926,VALID,0,VALID,97.2053,VALID,-0.0509425,VALID,19.7012,VALID,111,VALID,0.0234375,
2001-01-22, 02:56:00,VALID,914.907,VALID,0,VALID,97.1976,VALID,-0.0169808,VALID,19.7005,VALID,111,VALID,0,
2001-01-22, 02:57:00,VALID,914.88,VALID,0,VALID,97.1798,VALID,-0.0509425,VALID,19.7166,VALID,111,VALID,0,
2001-01-22, 02:58:00,VALID,914.843,VALID,0,VALID,97.1786,VALID,-0.0339617,VALID,19.7397,VALID,111,VALID,0,
2001-01-22, 02:59:00,VALID,914.834,VALID,0,VALID,97.0946,VALID,-0.0509425,VALID,19.7653,VALID,115,VALID,0,
2001-01-22, 03:00:00,VALID,914.814,VALID,0,VALID,96.9904,VALID,-0.0169808,VALID,19.772,VALID,176,VALID,0,
2001-01-22, 03:01:00,VALID,914.81,VALID,0,VALID,96.9242,VALID,-0.0169808,VALID,19.7718,VALID,195,VALID,0,
2001-01-22, 03:02:00,VALID,914.825,VALID,0,VALID,96.8365,VALID,-0.0169808,VALID,19.7748,VALID,218,VALID,0,
2001-01-22, 03:03:00,VALID,914.838,VALID,0,VALID,96.82,VALID,-0.0339617,VALID,19.7842,VALID,219,VALID,0,
2001-01-22, 03:04:00,VALID,914.847,VALID,0,VALID,96.7373,VALID,-0.0169808,VALID,19.781,VALID,210,VALID,0.0167969,
2001-01-22, 03:05:00,VALID,914.833,VALID,0,VALID,96.6826,VALID,-0.0169808,VALID,19.7681,VALID,202,VALID,0.478413,
2001-01-22, 03:06:00,VALID,914.842,VALID,0,VALID,96.7488,VALID,-0.0339617,VALID,19.7586,VALID,202,VALID,0.26398,
2001-01-22, 03:07:00,VALID,914.856,VALID,0,VALID,96.8136,VALID,-0.0169808,VALID,19.7489,VALID,202,VALID,0,
2001-01-22, 03:08:00,VALID,914.861,VALID,0,VALID,96.8263,VALID,0,VALID,19.7586,VALID,202,VALID,0.00898437,
2001-01-22, 03:09:00,VALID,914.84,VALID,0,VALID,96.7437,VALID,0,VALID,19.7812,VALID,164,VALID,0.287623,
2001-01-22, 03:10:00,VALID,914.822,VALID,0,VALID,96.4983,VALID,-0.0339617,VALID,19.7971,VALID,163,VALID,0.344551,
2001-01-22, 03:11:00,VALID,914.78,VALID,0,VALID,96.2185,VALID,-0.0169808,VALID,19.8071,VALID,127,VALID,0.648849,
2001-01-22, 03:12:00,VALID,914.755,VALID,0,VALID,96.0354,VALID,-0.0169808,VALID,19.7748,VALID,117,VALID,0.755859,
2001-01-22, 03:13:00,VALID,914.724,VALID,0,VALID,96.0672,VALID,-0.0169808,VALID,19.7422,VALID,107,VALID,0.857525,
2001-01-22, 03:14:00,VALID,914.701,VALID,0,VALID,95.8637,VALID,-0.0169808,VALID,19.7325,VALID,96,VALID,0.605263,
2001-01-22, 03:15:00,VALID,914.676,VALID,0,VALID,95.6539,VALID,-0.0169808,VALID,19.7069,VALID,95,VALID,0.365132,
2001-01-22, 03:16:00,VALID,914.676,VALID,0,VALID,95.3157,VALID,0,VALID,19.7072,VALID,48,VALID,0.467383,
2001-01-22, 03:17:00,VALID,914.669,VALID,0,VALID,94.9037,VALID,0,VALID,19.6808,VALID,332,VALID,0.502878,
2001-01-22, 03:18:00,VALID,914.666,VALID,0,VALID,95.2419,VALID,0,VALID,19.6938,VALID,340,VALID,0.305088,
2001-01-22, 03:19:00,VALID,914.652,VALID,0,VALID,95.5636,VALID,-0.0169808,VALID,19.7102,VALID,339,VALID,0.011102,
2001-01-22, 03:20:00,VALID,914.633,VALID,0,VALID,95.6234,VALID,0,VALID,19.7067,VALID,306,VALID,0,
2001-01-22, 03:21:00,VALID,914.608,VALID,0,VALID,95.4326,VALID,-0.0169808,VALID,19.7064,VALID,301,VALID,0,
2001-01-22, 03:22:00,VALID,914.582,VALID,0,VALID,95.3894,VALID,-0.0169808,VALID,19.7325,VALID,300,VALID,0,
2001-01-22, 03:23:00,VALID,914.57,VALID,0,VALID,95.4416,VALID,0,VALID,19.7613,VALID,239,VALID,0,
2001-01-22, 03:24:00,VALID,914.568,VALID,0,VALID,95.3169,VALID,0,VALID,19.778,VALID,173,VALID,0,
2001-01-22, 03:25:00,VALID,914.554,VALID,0,VALID,95.1033,VALID,0,VALID,19.8004,VALID,173,VALID,0,
2001-01-22, 03:26:00,VALID,914.553,VALID,0,VALID,94.9596,VALID,0,VALID,19.8036,VALID,173,VALID,0,
2001-01-22, 03:27:00,VALID,914.547,VALID,0,VALID,94.8871,VALID,-0.0169808,VALID,19.8163,VALID,173,VALID,0,
2001-01-22, 03:28:00,VALID,914.545,VALID,0,VALID,94.8325,VALID,-0.0339617,VALID,19.8227,VALID,173,VALID,0,
2001-01-22, 03:29:00,VALID,914.547,VALID,0,VALID,94.643,VALID,0,VALID,19.8197,VALID,173,VALID,0,
2001-01-22, 03:30:00,VALID,914.558,VALID,0,VALID,94.5883,VALID,0,VALID,19.8163,VALID,173,VALID,0,
2001-01-22, 03:31:00,VALID,914.565,VALID,0,VALID,94.6214,VALID,0,VALID,19.8033,VALID,173,VALID,0,
2001-01-22, 03:32:00,VALID,914.554,VALID,0,VALID,94.671,VALID,0,VALID,19.7937,VALID,158,VALID,0,
2001-01-22, 03:33:00,VALID,914.529,VALID,0,VALID,94.5883,VALID,0,VALID,19.7648,VALID,109,VALID,0.175164,
2001-01-22, 03:34:00,VALID,914.522,VALID,0,VALID,94.245,VALID,0,VALID,19.729,VALID,96,VALID,0.553686,
2001-01-22, 03:35:00,VALID,914.509,VALID,0,VALID,94.1369,VALID,-0.0339617,VALID,19.7161,VALID,93,VALID,0.491776,
2001-01-22, 03:36:00,VALID,914.5,VALID,0,VALID,94.3683,VALID,-0.0509425,VALID,19.7226,VALID,92,VALID,0.597266,
2001-01-22, 03:37:00,VALID,914.505,VALID,0,VALID,94.2094,VALID,-0.0339617,VALID,19.7194,VALID,91,VALID,0.627056,
2001-01-22, 03:38:00,VALID,914.506,VALID,0,VALID,93.9945,VALID,-0.0339617,VALID,19.7166,VALID,98,VALID,0.560238,
2001-01-22, 03:39:00,VALID,914.496,VALID,0,VALID,94.0237,VALID,-0.0169808,VALID,19.6967,VALID,116,VALID,0.67352,
2001-01-22, 03:40:00,VALID,914.493,VALID,0,VALID,94.1343,VALID,-0.0169808,VALID,19.6903,VALID,137,VALID,0.778125,